• MPC Preparation (Info)

  • MPEC 2023-G74 : 2023 GE1

    The following Minor Planet Electronic Circular may be linked-to from your own Web pages, but must not otherwise be redistributed electronically.

    A form allowing access to any MPEC is at the bottom of this page.


    Read MPEC 2023-G73 Read MPEC 2023-G75


    M.P.E.C. 2023-G74                                Issued 2023 April 13, 11:03 UT
    
         The Minor Planet Electronic Circulars contain information on unusual
             minor planets, routine data on comets and natural satellites,
             and occasional editorial announcements.  They are published
        on behalf of Division F of the International Astronomical Union by the
              Minor Planet Center, Smithsonian Astrophysical Observatory,
                              Cambridge, MA 02138, U.S.A.
    			  
                 Prepared using the Tamkin Foundation Computer Network
    
                                  MPC@CFA.HARVARD.EDU
                URL https://www.minorplanetcenter.net/    ISSN 1523-6714
    
                                    2023 GE1                                 
    
    
    Observations:
         K23G01E* C2023 04 12.21600 11 36 27.90 +20 20 26.5          18.34gUEG074I41
         K23G01E  C2023 04 12.21635 11 36 28.63 +20 20 57.9          18.34gUEG074I41
         K23G01E  C2023 04 12.21648 11 36 29.00 +20 21 10.7          18.07gUEG074I41
         K23G01E  C2023 04 12.21682 11 36 29.78 +20 21 42.2          18.07gUEG074I41
         K23G01E  C2023 04 12.21789 11 36 32.31 +20 23 18.0          18.13gUEG074I41
         K23G01E  C2023 04 12.21824 11 36 33.06 +20 23 49.5          18.13gUEG074I41
         K23G01E  C2023 04 12.21836 11 36 33.36 +20 24 01.9          18.20gUEG074I41
         K23G01E  C2023 04 12.21871 11 36 34.15 +20 24 34.0          18.20gUEG074I41
         K23G01E KC2023 04 12.26481 11 38 24.650+21 32 12.73         17.5 GVEG074U52
         K23G01E  C2023 04 12.26569711 38 17.068+21 34 43.06         17.0 GVEG074H01
         K23G01E KC2023 04 12.26863 11 38 33.569+21 37 51.82         17.7 GVEG074U52
         K23G01E  C2023 04 12.27041911 38 27.966+21 41 38.50         17.8 GVEG074H01
         K23G01E  C2023 04 12.28040811 38 51.006+21 56 11.16         17.8 GVEG074H01
         K23G01E  C2023 04 12.28623911 39 04.452+22 04 38.12         17.6 GVEG074H01
         K23G01E mC2023 04 12.28675711 39 07.578+22 05 42.72         17.69GVEG074I52
         K23G01E KC2023 04 12.28684 11 39 15.653+22 04 24.35         17.6 GVEG074U52
         K23G01E mC2023 04 12.28685711 39 07.830+22 05 51.14         17.65GVEG074I52
         K23G01E mC2023 04 12.28695711 39 08.060+22 05 59.57         17.84GVEG074I52
         K23G01E mC2023 04 12.28705711 39 08.276+22 06 08.78         17.79GVEG074I52
         K23G01E KC2023 04 12.29067 11 39 24.578+22 09 57.02         17.8 GVEG074U52
         K23G01E KC2023 04 12.29762 11 39 25.87 +22 19 53.4          17.5 VqEG074734
         K23G01E KC2023 04 12.29823 11 39 27.30 +22 20 46.6          17.3 VqEG074734
         K23G01E KC2023 04 12.29884 11 39 28.72 +22 21 37.8          17.5 VqEG074734
         K23G01E KC2023 04 12.30153 11 39 49.522+22 25 35.40         17.3 GVEG074U52
         K23G01E KC2023 04 12.32138 11 40 35.074+22 53 48.84         18.2 GVEG074U52
         K23G01E KC2023 04 12.78028411 58 39.79 +32 05 58.9          18.0 RoEG074K88
         K23G01E KC2023 04 12.78191111 58 43.04 +32 07 39.0          18.1 RoEG074K88
         K23G01E KC2023 04 12.78353811 58 46.29 +32 09 19.0          18.2 RoEG074K88
         K23G01E KC2023 04 12.84676412 01 00.49 +33 12 29.5          18.1 GXEG074958
         K23G01E KC2023 04 12.85093312 01 08.61 +33 16 35.0          18.2 GXEG074958
         K23G01E KC2023 04 12.85510012 01 16.75 +33 20 37.6          18.3 GXEG074958
         K23G01E KC2023 04 12.90909612 02 51.994+34 12 50.80         17.3 rZEG074L34
         K23G01E KC2023 04 12.97230212 04 48.614+35 09 35.93               ZEG074L34
         K23G01E KC2023 04 13.13552812 10 42.607+37 25 19.09         18.03GVEG074I52
         K23G01E KC2023 04 13.13603712 10 43.500+37 25 43.46         18.01GVEG074I52
         K23G01E KC2023 04 13.13934212 10 49.307+37 28 22.04         17.95GVEG074I52
         K23G01E KC2023 04 13.13986112 10 50.210+37 28 46.70         18.01GVEG074I52
         K23G01E KC2023 04 13.18909512 12 02.57 +38 06 41.0          18.8 VuEG074H21
         K23G01E KC2023 04 13.19031612 12 04.64 +38 07 36.5          18.6 VuEG074H21
         K23G01E KC2023 04 13.19166812 12 06.94 +38 08 37.7          18.8 VuEG074H21
         K23G01E KC2023 04 13.19202 12 12 11.71 +38 08 55.2          18.7 VqEG074734
         K23G01E KC2023 04 13.19295412 12 09.12 +38 09 35.6          18.8 VuEG074H21
         K23G01E KC2023 04 13.19361 12 12 14.43 +38 10 07.9          18.8 VqEG074734
         K23G01E KC2023 04 13.19456112 12 11.82 +38 10 48.3          18.7 VuEG074H21
         K23G01E KC2023 04 13.19521 12 12 17.14 +38 11 20.4          18.8 VqEG074734
         K23G01E KC2023 04 13.26872 12 14 32.875+39 04 48.94         18.4 GVEG074U52
         K23G01E KC2023 04 13.27253 12 14 39.288+39 07 33.31         18.5 GVEG074U52
    
    Observer details:
    734 Farpoint Observatory, Eskridge.  Observers D. Cromer, G. Hug, D. Goodin,
        R. Valentine.  Measurer D. Cromer.  0.70-m f/3.0 reflector + CCD.
    958 Observatoire de Dax.  Observers P. Dupouy, J. B. de Vanssay.  Measurer P.
        Dupouy.  0.43-m f/2.7 Reflector + CCD.
    H01 Magdalena Ridge Observatory, Socorro.  Observers W. H. Ryan, E. V. Ryan.
        Measurer W. H. Ryan.  2.4-m f/8.9 Ritchey-Chretien + CCD.
    H21 Astronomical Research Observatory, Westfield.  Observer R. Holmes.
        Measurers T. Linder, R. Holmes, L. Horn.  0.76-m f/3.0 astrograph + CCD.
    I41 Palomar Mountain--ZTF.  Observers T. Prince, G. Helou, K. Venkataramani,
        Q.-Z. Ye, D. Kulkarni, V. Swain, C. Y. Hsu, Y. Cheng.  Measurers F. Masci,
        D. Shupe, K. Venkataramani, Q.-Z. Ye.  1.2-m f/2.44 Oschin-Schmidt + CCD.
    I52 Steward Observatory, Mt. Lemmon Station.  Observer R. A. Kowalski.
        Measurers E. J. Christensen, D. Fay, J. B. Fazekas, D. C. Fuls, A. R.
        Gibbs, A. D. Grauer, H. Groeller, J. K. Hogan, R. A. Kowalski, S. M.
        Larson, G. J. Leonard, D. Rankin, R. L. Seaman, A. Serrano, F. C. Shelly,
        K. W. Wierzchos.  1.0-m prime focus + CCD.
    K88 GINOP-KHK, Piszkesteto.  Observer K. Sarneczky.  0.60-m Schmidt + CCD.
    L34 Galhassin Robotic Telescope, Isnello.  Observer A. Nastasi.  0.40-m f/3.8
        400mm Reflector + CCD + CCD.
    U52 Shasta Valley Observatory, Grenada.  Observer J. E. Rogers.  Measurers J.
        E. Rogers, D. Parrott.  0.30-m f/5.2 0.30-m Helin Telescope + CCD.
    
    Orbital elements:
    2023 GE1                                                 Earth MOID = 0.0101 AU
    Epoch 2023 Feb. 25.0 TT = JDT 2460000.5                 Veres                   
    M  24.16033              (2000.0)            P               Q                  
    n   0.91458015     Peri.  280.19219     -0.47842586     -0.86358633             
    a   1.0511262      Node   200.83373     +0.87219862     -0.48835155             
    e   0.1251216      Incl.   26.58143     -0.10187374     -0.12542494             
    P   1.08           H   25.42          G   0.15           U   7                  
    Residuals in seconds of arc
    230412 I41 (2.2+  2.5+)   230412 I52  0.1+  0.3-    230412 L34  0.4-  0.3+
    230412 I41 (0.9+  1.8+)   230412 I52 (0.1+  0.5-)   230413 I52  0.2-  0.1-
    230412 I41 (1.8+  2.7+)   230412 I52  0.1-  0.0     230413 I52  0.3-  0.2-
    230412 I41 (1.6+  3.0+)   230412 U52  1.4+  0.5-    230413 I52  0.3-  0.0
    230412 I41 (1.9+  0.9+)   230412 734  0.2-  0.1-    230413 I52  0.3-  0.2-
    230412 I41  1.0+  0.3+    230412 734  0.1-  0.8+    230413 H21  0.6-  0.0
    230412 I41 (1.2+  1.8+)   230412 734  0.2-  0.3-    230413 H21  0.5-  0.2+
    230412 I41 (0.8+  1.8+)   230412 U52  0.4+  0.3+    230413 H21  0.4-  0.2+
    230412 U52  0.7+  0.2-    230412 U52  0.0   0.0     230413 734  0.3+  0.2-
    230412 H01  0.1+  0.2-    230412 K88  0.2+  0.0     230413 H21  0.3-  0.1-
    230412 U52  1.3+  1.5+    230412 K88  0.1+  0.0     230413 734  0.6+  0.3+
    230412 H01  0.0   0.2+    230412 K88  0.0   0.1-    230413 H21  0.5-  0.1+
    230412 H01  0.0   0.3-    230412 958  0.0   0.1+    230413 734  0.7+  0.4+
    230412 H01  0.1+  0.1+    230412 958  0.3+  1.2+    230413 U52  1.3-  0.2-
    230412 I52  0.2-  0.0     230412 958  1.1+  0.4+    230413 U52  0.2-  0.2+
    230412 U52  0.3+  0.5-    230412 L34  0.5-  0.2+
    
    Ephemeris:
    2023 GE1                 a,e,i = 1.05, 0.13, 27                  q = 0.9196
    Date    TT    R. A. (2000) Decl.     Delta      r    Elong.  Phase     V
    2023 03 14    03 11 07.4 -67 07 38   0.2216  0.9577    74.2    92.9    25.4
    ...
    2023 03 29    03 50 56.2 -68 49 04   0.1075  0.9846    79.7    94.1    23.9
    ...
    2023 04 06    05 36 06.5 -69 40 22   0.04417 1.0005    88.9    88.6    21.8
    ...
    2023 04 12    11 26 43.1 +14 29 12   0.01325 1.0129   143.9    35.7    17.5
    2023 04 13    12 05 54.7 +35 33 42   0.01854 1.0149   132.1    47.1    18.6
    2023 04 14    12 34 20.5 +45 55 50   0.02539 1.0170   123.7    55.1    19.5
    ...
    2023 04 20    13 47 27.1 +60 17 37   0.07228 1.0296   108.5    67.7    22.2
    ...
    2023 04 28    14 14 45.9 +62 42 41   0.1360  1.0464   103.4    69.3    23.6
    ...
    2023 05 13    14 31 34.8 +62 31 30   0.2505  1.0773    98.8    67.9    25.0
    
    M. P. C. Staff               (C) Copyright 2023 MPC           M.P.E.C. 2023-G74
    


    Read MPEC 2023-G73 Read MPEC 2023-G75


    MPEC number:

    Enter an MPEC number in one of the following forms:

    • 1997-B01 (the full form)
    • J97B01 (the packed version of the full form)
    • B01 (the abbreviated form)